Ana Sayfa
METAR-TAF:

METAR-TAF

Havaalanları :

Vicksburg Tallulah Regional Airport

Tallulah / Vicksburg, Louisiana, Amerika Birleşik Devletleri

Enlem: 32-20-53N, Boylam: 091-01-48W, yükseklik: 26 m

Güncel hava durumu gözlemi

Rapor saat 08:53 UTC de 40 dakika önce yapıldı.
Sakin rüzgar
Sıcaklık 23°C
Nem 100%
Basınç 1014 hPa
Görüş mesafesi: 11.3 km
Açık gökyüzü

METAR: KTVR 250853Z AUTO 00000KT 7SM CLR 23/23 A2993 RMK AO2 SLP141 T02330228 56002 $

Saat: 04:33 (09:33 UTC)


TAF: eksik

4.000'den fazla havaalanı için hava durumu gözlemleri ve tahminleri (METAR ve TAF raporları).

Kullanılabilir istasyonlar harita üzerinde sarı ve kırmızı noktalarla gösterilir.

İstasyonun adını görmek için fareyi noktanın üzerinde gezdirin.

Sonrasında hava gözlem ve tahminlerini görmek için tıklayın.

Haritayı değiştirmek için: yaklaştırmak için siyah artı işaretli yeşil düğmeye ve uzaklaştırmak için de eksi işaretli düğmeye hızla tıklayın; bitişik haritalar için yeşil okları kullanın.


METAR-TAF: